Voltar ao catálogo

NAVSTAR 37

USA 117

AtivoNavegaçãoMEO
NORAD 23833·PAYLOAD·🇺🇸 United States

Lançado Mar 28, 1996 de Cape Canaveral Space Force Station

Loading…

Próximas Passagens (próximas 24 horas)

TLE

AtualizadoSource: Space-Track

Época: Sep 12, 2026, 18:58 UTC

1 23833U 96019A   26255.79081875 -.00000016  00000-0  00000-0 0  9997
2 23833  52.7496 261.7170 0008467  19.1695 337.2876  1.94619840 84464

Acompanhe NAVSTAR 37 em tempo real com AllMySat

Download on the App Store